RH
96 100 95 97 100 99 100 96 99 100 99 100 100 98 96 96 94 86 67 26 22 21 18 13 10 9 8 6 5 4 4 3 2 2 2 2 2 2
95 98 100 98 93 100 100 100 100 100 99 99 99 97 98 95 80 32 22 21 18 13 9 8 7 5 5 4 3 3 2 2 2 2 3 4 7 12
93 97 100 93 98 99 97 100 99 100 99 99 98 98 97 63 22 20 16 11 9 7 5 4 4 3 3 2 2 2 3 3 5 10 17 24 31 34
100 97 98 100 99 99 100 99 98 99 100 99 96 77 25 20 16 11 8 7 5 4 3 3 3 3 3 4 6 11 15 18 21 24 28 28 26 27
93 98 99 99 100 99 99 99 98 98 98 94 53 22 19 11 8 6 5 4 4 4 3 3 5 12 18 21 21 21 22 25 28 29 29 29 32 35
94 96 100 100 98 97 99 99 98 97 74 29 18 12 9 7 5 5 4 3 3 4 7 16 20 26 34 33 34 36 38 40 39 37 36 37 39 41
99 100 99 99 98 99 99 94 47 22 17 11 8 7 6 5 4 4 4 3 4 15 21 29 42 47 48 49 53 56 58 59 60 58 60 59 55 50
99 98 99 98 97 95 54 21 16 11 8 7 6 6 5 4 4 4 4 7 15 32 32 30 36 26 30 33 40 47 54 60 66 69 70 68 64 60
98 98 98 94 78 25 16 12 9 8 7 6 5 4 4 5 4 5 16 28 38 45 29 24 35 22 30 31 43 49 53 58 62 63 69 75 74 67
97 91 62 30 16 11 9 8 7 6 6 5 5 5 5 6 9 24 36 40 41 41 42 34 36 33 36 32 39 50 60 64 68 66 66 70 72 73
48 22 14 11 9 9 8 7 6 6 5 5 5 6 6 20 36 44 54 46 34 45 56 48 47 42 44 40 37 45 51 58 65 70 74 73 72 71
13 11 10 9 8 8 7 6 5 5 6 7 7 12 34 47 55 59 52 43 50 48 62 50 55 57 42 50 50 58 51 58 64 67 68 66 63 60
11 10 9 8 7 6 5 5 6 7 8 8 24 43 54 62 68 63 58 59 58 58 69 65 60 71 71 59 56 66 69 69 54 55 62 67 66 63
10 9 8 6 5 5 6 8 8 9 9 33 48 57 64 69 68 64 70 69 63 69 71 81 74 79 77 70 65 66 73 68 65 66 70 71 69 66
8 6 5 5 6 7 8 7 9 11 39 50 58 64 67 61 64 66 72 68 62 73 79 89 89 86 87 81 74 73 70 69 86 80 71 70 73 76
5 5 5 5 6 5 6 9 18 45 54 58 63 65 60 61 68 67 63 61 55 62 82 92 94 95 88 88 87 76 92 86 81 79 77 76 80 81
4 4 5 5 5 6 9 29 49 57 60 63 65 62 61 64 72 74 74 66 60 59 74 89 94 96 94 96 82 100 87 80 91 93 89 81 92 97
3 4 4 4 6 11 40 52 58 60 61 64 65 63 65 71 70 73 74 75 69 70 80 92 90 80 78 79 94 75 77 70 75 79 78 71 82 96
3 4 4 6 20 44 55 58 58 60 61 64 65 66 65 64 63 66 70 74 72 70 77 94 89 87 76 65 82 96 72 77 80 77 81 78 72 94
4 4 9 30 45 54 55 53 56 59 62 62 65 67 64 62 64 65 68 74 74 64 69 94 97 94 97 86 70 82 98 88 81 77 75 74 85 84
5 12 33 46 52 54 52 52 53 55 56 57 59 61 61 62 66 69 71 79 81 71 61 82 97 100 96 88 79 80 89 99 97 92 90 82 82 80
11 31 46 52 56 57 54 53 55 55 56 54 56 57 58 62 68 70 73 73 70 64 59 71 86 86 91 92 84 86 83 87 100 97 97 98 96 83
26 42 52 56 56 58 60 58 55 57 58 60 61 59 55 56 68 72 65 60 65 65 59 61 83 88 93 97 97 92 91 88 86 77 89 97 97 97
Wind_Speed
39 42 43 45 43 46 41 38 41 45 41 38 40 42 41 42 43 48 48 50 50 51 51 52 53 55 57 59 61 62 62 63 63 63 62 62 62 61
41 42 43 45 46 46 43 44 43 46 44 39 36 38 39 42 44 47 48 50 50 52 53 55 59 60 62 64 65 65 65 64 62 59 54 51 49 48
43 43 44 48 61 57 46 45 42 45 41 36 37 36 40 40 43 46 48 50 51 53 56 58 60 61 63 63 62 61 58 56 52 49 46 45 44 44
39 42 50 45 58 45 45 40 38 35 37 35 36 38 40 40 44 46 48 51 54 55 56 59 59 56 55 53 51 49 48 47 46 45 44 43 42 41
40 44 51 49 47 37 34 35 36 33 32 35 38 40 42 43 44 47 51 52 54 53 52 51 47 43 41 41 42 43 44 44 44 44 44 43 41 39
40 43 38 34 34 30 27 31 34 32 33 37 39 40 43 45 49 52 53 53 52 44 40 37 36 36 36 39 41 42 43 45 45 45 44 43 41 40
37 38 33 28 27 27 30 29 29 33 35 36 38 42 46 48 51 53 53 51 43 32 32 31 31 33 34 36 37 39 41 44 45 46 46 45 45 43
30 22 22 25 26 24 26 29 30 33 35 39 42 46 48 49 50 49 46 41 34 29 33 35 34 35 36 37 37 37 37 39 40 41 42 42 42 42
20 20 21 18 23 27 28 30 31 35 40 43 46 46 48 47 48 41 33 32 32 32 36 39 35 35 35 34 32 33 35 36 36 38 39 39 39 40
18 17 20 24 26 26 29 31 34 38 42 43 45 45 44 40 35 30 30 33 35 32 36 43 34 36 33 30 27 27 27 29 31 34 35 36 38 40
16 19 21 24 26 30 34 36 38 41 42 43 43 41 35 28 27 29 31 34 36 31 33 42 35 38 33 26 24 22 23 25 26 28 33 37 38 39
17 20 23 27 31 34 39 41 43 42 40 37 33 28 24 23 26 29 31 34 36 36 36 44 39 39 39 28 26 25 23 23 25 28 31 34 37 39
21 24 28 31 35 39 42 43 41 38 32 26 19 17 19 22 25 27 30 33 34 34 34 43 43 41 42 40 30 27 25 23 24 25 28 30 32 35
24 28 32 36 40 41 40 37 35 29 22 16 15 17 19 21 23 25 28 30 33 36 34 38 42 42 42 40 34 25 24 24 23 25 26 27 29 32
31 35 38 41 41 39 36 31 23 16 12 13 16 19 21 22 25 26 28 29 28 30 32 35 38 38 39 38 39 30 30 21 24 26 28 27 26 28
36 39 40 40 38 32 23 15 10 9 12 14 16 19 21 22 25 28 28 29 26 23 27 31 34 35 35 36 34 30 28 32 26 25 28 27 27 27
38 38 37 33 26 17 11 8 9 12 15 17 19 20 21 22 24 28 30 30 30 28 26 27 32 34 33 31 29 26 22 19 23 24 25 25 23 24
37 33 27 17 8 5 6 9 11 15 16 18 20 21 23 25 27 28 31 32 32 31 30 30 30 29 27 26 27 18 16 17 17 23 27 29 26 18
30 22 12 4 4 4 6 9 12 15 16 19 21 23 26 27 29 30 31 31 31 32 30 30 31 33 31 28 22 21 21 24 26 27 29 29 28 26
18 8 4 5 4 4 7 11 14 15 17 20 23 25 27 29 30 30 31 33 33 32 30 29 30 30 30 32 30 22 25 27 29 29 28 27 27 24
7 3 3 2 3 5 8 12 14 16 18 20 23 25 27 30 30 31 32 32 34 34 32 30 28 28 28 29 29 25 20 23 26 28 30 30 31 27
2 2 1 2 4 7 9 13 16 18 20 22 24 26 28 30 30 30 32 33 33 33 32 31 30 28 26 28 28 26 23 20 22 25 24 26 33 38
4 3 3 4 7 10 12 14 17 19 21 23 25 27 29 29 30 31 32 33 34 34 35 34 31 29 27 29 30 28 25 24 25 26 19 26 32 35
Wind_Direction
258 258 268 274 274 270 271 273 273 274 284 273 277 279 279 286 290 292 292 292 294 295 296 295 294 293 293 293 292 291 290 289 287 285 284 282 281 280
259 259 263 264 268 258 269 270 271 268 277 273 273 278 283 288 292 293 293 294 296 297 297 297 295 295 294 293 292 292 290 288 286 284 282 281 275 271
262 267 268 268 269 256 273 263 277 274 274 277 280 285 288 292 291 292 293 295 296 296 296 294 293 294 294 294 292 291 289 287 287 285 283 277 274 269
266 270 268 273 279 271 271 267 266 275 281 283 289 290 292 293 292 294 293 295 296 296 297 298 298 297 294 294 294 293 292 290 286 283 280 279 276 271
268 274 266 267 278 273 271 276 281 279 285 295 294 290 294 295 294 295 295 297 298 302 302 298 298 299 299 297 295 293 291 289 288 285 281 278 275 273
273 274 277 276 276 278 281 279 286 298 301 290 292 298 297 297 298 298 298 301 305 305 301 301 301 302 302 299 298 298 295 290 287 285 282 279 277 274
274 270 265 271 274 275 280 294 297 292 291 294 297 298 297 299 298 301 305 307 304 306 301 302 302 301 301 299 298 295 292 289 286 283 281 280 278 275
268 268 271 272 279 297 298 289 293 295 300 299 297 297 298 300 304 307 307 303 306 306 305 306 308 307 307 307 304 300 296 290 287 283 279 276 275 274
264 265 271 296 298 288 295 298 301 300 297 298 299 301 304 307 306 302 300 300 306 315 313 307 314 314 314 315 308 302 299 295 290 286 284 279 275 272
274 305 308 292 288 294 296 298 299 299 298 300 304 306 304 303 301 301 304 311 316 322 315 306 317 313 315 320 314 309 305 300 290 285 281 275 272 270
301 287 287 290 299 301 300 300 298 300 306 307 305 302 300 300 302 307 312 313 312 319 314 308 318 314 318 326 321 315 303 296 291 282 278 276 275 274
298 299 300 304 303 301 301 303 307 308 307 303 300 298 300 305 309 311 312 314 317 321 320 313 322 322 322 334 329 327 314 300 291 285 281 277 276 275
303 305 306 303 302 305 307 308 308 307 307 306 300 300 307 310 310 312 314 315 318 320 321 315 321 323 322 327 334 329 317 304 295 289 282 279 278 278
309 308 308 309 309 308 308 309 311 313 316 315 314 312 313 313 312 314 316 319 322 321 321 315 318 320 322 325 329 333 320 315 307 295 290 284 281 280
315 314 312 310 309 311 313 316 318 320 321 320 321 321 320 321 320 323 322 322 323 319 317 314 314 317 318 322 324 333 320 319 312 305 299 298 295 288
316 313 312 311 313 316 319 325 332 333 330 327 326 326 326 329 326 327 329 326 327 321 319 316 316 318 320 322 324 329 326 325 325 317 312 312 305 298
319 318 316 316 318 324 340 352 346 339 336 334 332 332 332 334 334 332 333 333 333 331 327 320 318 318 320 322 323 322 322 330 332 341 339 336 320 303
323 322 321 323 335 355 1 345 343 339 337 335 332 333 334 334 333 331 332 334 334 332 329 324 322 320 320 325 330 327 331 331 342 341 340 343 352 326
328 329 338 17 64 36 355 344 339 337 336 334 333 332 333 333 333 335 332 332 333 332 330 327 329 327 325 329 336 331 322 324 324 328 331 335 336 344
336 353 57 89 57 9 350 344 342 338 335 334 333 332 334 337 335 333 334 333 332 332 335 334 328 325 323 326 333 335 319 319 321 324 325 326 326 327
347 44 100 64 3 343 341 342 343 341 339 337 335 336 337 337 337 336 335 334 331 333 336 336 330 322 323 323 324 327 327 325 326 328 330 325 323 326
313 170 240 312 321 326 334 339 338 337 340 341 340 340 340 338 338 337 335 334 333 334 335 335 334 330 325 322 325 324 321 318 322 329 330 330 331 326
220 232 275 310 322 324 329 330 327 328 332 335 338 341 340 339 338 336 337 338 336 338 338 338 336 333 330 326 325 324 319 317 321 327 331 325 324 320